SCP
-0 -0 0 -0 -0 -0 0 0 0 0 0 0 -0 -0 -0 0 0 0 0 0 -0 -0 -0 -0 -0 -0 -0 -0 0 0 0 -0 -0 -0 -0 -0 -0 -0 -0 -0 -0 -0 -0 -0 -0 -0 -0 -0 -0
-0 -0 -0 0 -0 0 -0 0 0 0 0 0 -0 0 -0 0 0 0 -0 0 -0 -0 -0 -0 -0 -0 -0 -0 -0 -0 -0 -0 -0 -0 -0 -0 -0 -0 -0 -0 -0 -0 -0 -0 -0 -0 -0 -0 -0
0 0 0 -0 -0 0 0 0 0 0 0 0 0 -0 -0 0 0 -0 0 0 -0 -0 -0 -0 -0 -0 -0 -0 -0 -0 -0 -0 -0 -0 -0 -0 -0 -0 -0 -0 -0 -0 -0 -0 -0 -0 -0 -0 -0
0 0 -0 -0 -0 -0 -0 0 0 0 -0 0 0 -0 0 0 -0 -0 -0 -0 -0 -0 -0 -0 -0 -0 -0 -0 -0 -0 -0 -0 -0 -0 -0 -0 -0 -0 -0 -0 -0 -0 -0 -0 -0 -0 -0 -0 -0
0 0 0 0 0 -0 -0 0 0 0 0 0 0 0 0 0 0 -0 -0 -0 -0 -0 -0 -0 -0 -0 -0 -0 -0 -0 -0 -0 -0 -0 -0 -0 -0 -0 -0 -0 -0 -0 -0 -0 -0 -0 -0 0 0
0 0 0 0 0 -0 0 0 0 0 0 0 0 0 0 0 0 0 -0 -0 -0 -0 -0 -0 -0 -0 -0 -0 -0 -0 -0 -0 -0 -0 -0 -0 -0 -0 -0 -0 -0 -0 -0 -0 -0 -0 -0 -0 -0
0 0 0 0 0 0 0 0 0 0 0 0 0 0 0 0 0 0 0 -0 -0 -0 -0 0 -0 -0 -0 0 0 0 -0 -0 -0 -0 -0 -0 -0 -0 -0 -0 -0 -0 -0 -0 -0 -0 -0 -0 -0
0 0 0 0 0 0 0 0 0 0 0 0 0 0 0 0 0 0 0 0 0 0 0 0 0 0 0 0 0 0 0 -0 -0 -0 -0 -0 -0 -0 -0 -0 -0 -0 -0 -0 -0 0 0 0 0
0 0 0 0 0 0 0 0 0 0 0 0 0 0 0 0 0 0 0 0 0 0 0 0 0 0 0 0 0 0 0 -0 -0 0 0 0 0 0 0 0 -0 -0 0 0 0 0 0 0 0
0 0 0 0 0 0 0 0 0 0 0 0 0 0 0 0 0 0 0 0 0 0 0 0 0 0 0 0 0 0 0 0 0 0 0 0 0 0 0 0 0 0 0 0 0 0 0 0 0
0 0 0 0 0 0 0 0 0 0 0 0 0 0 0 0 0 0 0 0 0 0 0 0 0 0 0 0 0 0 0 0 0 0 0 0 0 0 0 0 0 0 0 0 0 0 0 0 0
0 0 0 0 0 0 0 0 0 0 0 0 0 0 0 0 0 0 0 0 0 0 0 0 0 0 0 0 0 0 0 0 0 0 0 0 0 0 0 0 0 0 0 0 0 0 0 0 0
0 0 0 0 0 0 0 0 0 0 0 0 0 0 0 0 0 0 0 0 0 0 0 0 0 0 0 0 0 0 0 0 0 0 0 0 0 0 0 0 0 0 0 0 0 0 0 0 0
0 0 0 0 0 0 0 0 0 0 0 0 0 0 0 0 0 0 0 0 0 0 0 0 0 0 0 0 0 0 0 0 0 0 0 0 0 0 0 0 0 0 0 0 0 0 0 0 0
0 0 0 0 0 0 0 0 0 0 0 0 0 0 0 0 0 0 0 0 0 0 0 0 0 0 0 0 0 0 0 0 0 0 0 0 0 0 0 0 0 0 0 0 0 0 0 0 0
0 0 0 0 0 0 0 0 0 0 0 0 0 0 0 0 0 0 0 0 0 0 0 0 0 0 0 0 0 0 0 0 0 0 0 0 0 0 0 0 0 0 0 0 0 0 0 0 0
0 0 0 0 0 0 0 0 0 0 0 0 0 0 0 0 0 0 0 0 0 0 0 0 0 0 0 0 0 0 0 0 0 0 0 0 0 0 0 0 0 0 0 0 0 0 0 0 0
0 0 0 0 0 0 0 0 0 0 0 0 0 0 0 0 0 0 0 0 0 0 0 0 0 0 0 0 0 0 0 0 0 0 0 0 0 0 0 0 0 0 0 0 0 0 0 0 0
0 0 0 0 0 0 0 0 0 0 0 0 0 0 0 0 0 0 0 0 0 0 0 0 0 0 0 0 0 0 0 0 0 0 0 0 0 0 0 0 0 0 0 0 0 0 0 0 0
0 0 0 0 0 0 0 0 0 0 0 0 0 0 0 0 0 0 0 0 0 0 0 0 0 0 0 0 0 0 0 0 0 0 0 0 0 0 0 0 0 0 0 0 0 0 0 0 0
0 0 0 0 0 0 0 0 0 0 0 0 0 0 0 0 0 0 0 0 0 0 0 0 0 0 0 0 0 0 0 0 0 0 0 0 0 0 0 0 0 0 0 0 0 0 0 0 0
0 0 0 0 0 0 0 -0 0 0 0 0 0 0 0 0 0 0 0 0 0 0 0 0 0 0 0 0 0 0 0 0 0 0 0 0 0 0 0 0 0 0 0 0 0 0 0 0 0
0 0 0 0 0 0 0 0 0 0 0 0 0 0 0 0 0 0 0 0 0 0 0 0 0 0 0 0 0 0 0 0 0 0 0 0 0 0 0 0 0 0 0 0 0 0 0 0 0
0 0 0 0 0 0 0 0 0 0 0 0 0 0 0 0 0 0 0 0 0 0 0 0 0 0 0 0 0 0 0 0 0 0 0 0 0 0 0 0 0 0 0 0 0 0 0 0 0
0 0 0 0 0 0 0 0 0 0 0 0 0 0 0 0 0 0 0 0 0 0 0 0 0 0 0 0 0 0 0 0 0 0 0 0 0 0 0 0 0 0 0 0 0 0 0 0 0
0 0 0 0 0 0 0 0 0 0 0 0 0 0 0 0 0 0 0 0 0 0 0 0 0 0 0 0 0 0 0 0 0 0 0 0 0 0 0 0 0 0 0 0 0 0 0 0 0
0 0 0 0 0 0 0 0 0 0 0 0 0 0 0 0 0 0 0 0 0 0 0 0 0 0 0 0 0 0 0 0 0 0 0 0 0 0 0 0 0 0 0 0 0 0 0 0 0
0 0 0 0 0 0 0 0 0 0 0 0 0 0 0 0 0 0 0 0 0 0 0 0 0 0 0 0 0 0 0 0 0 0 0 0 0 0 0 0 0 0 0 0 0 0 0 0 0
0 0 0 0 0 0 0 0 0 0 0 0 0 0 0 0 0 0 0 0 0 0 0 0 0 0 0 0 0 0 0 0 0 0 0 0 0 0 0 0 0 0 0 0 0 0 0 0 0
0 0 0 0 0 0 0 0 0 0 0 0 0 0 0 0 0 0 0 0 0 0 0 0 0 0 0 0 0 0 0 0 0 0 0 0 0 0 0 0 0 0 0 0 0 0 0 0 0
Wind_Speed_500mb
6 8 8 7 8 10 4 5 8 7 8 10 24 42 24 19 8 11 15 12 14 19 27 24 24 24 23 23 22 20 18 17 12 12 11 15 19 19 18 20 20 19 20 19 18 17 16 18 21
11 6 7 3 9 7 7 8 16 9 13 19 37 36 32 10 26 24 13 28 16 20 20 24 25 24 23 21 20 19 15 16 13 11 12 12 16 17 21 23 21 18 16 16 16 16 15 14 16
9 7 5 8 7 6 7 6 14 14 8 4 12 24 11 8 15 11 11 35 25 21 19 24 24 22 20 24 21 19 17 14 12 13 14 10 17 20 23 23 23 21 17 17 16 14 13 12 13
10 4 1 9 10 14 12 11 27 18 9 10 25 21 19 15 5 16 26 34 27 22 16 17 21 21 19 21 20 16 15 11 14 16 11 10 15 18 21 23 23 19 18 18 17 16 15 14 15
9 2 7 7 6 11 7 11 9 10 13 13 21 10 14 21 24 25 24 22 26 26 21 20 22 22 19 17 19 17 15 10 12 12 8 7 11 15 20 22 24 21 18 18 17 17 17 16 17
6 4 8 4 5 8 8 7 2 10 19 22 25 15 10 18 26 22 26 17 30 24 21 18 19 24 23 20 19 17 14 12 12 11 5 1 5 10 15 19 21 21 19 19 19 18 16 15 15
6 7 6 3 9 7 10 13 6 9 17 10 13 10 16 22 28 24 29 29 33 31 24 18 20 18 19 18 18 17 16 13 12 11 8 5 1 3 14 17 18 17 19 20 19 18 16 14 11
5 8 4 3 7 4 13 15 9 16 4 10 15 12 13 27 31 25 23 27 25 35 32 23 24 27 26 22 18 16 16 14 13 13 11 9 2 7 16 18 22 16 16 20 22 20 18 16 13
4 8 3 6 5 9 14 6 7 12 17 9 11 17 24 27 29 26 23 23 25 29 33 29 29 29 29 22 21 18 17 16 15 15 14 13 9 2 5 10 22 21 18 21 22 21 20 18 16
9 7 3 0 6 7 16 9 15 10 17 10 19 21 20 25 29 26 25 28 27 29 31 28 27 34 41 28 20 19 22 17 18 19 18 16 13 10 5 8 16 18 19 23 22 19 23 21 18
5 6 3 7 10 14 10 8 8 9 6 13 22 26 19 21 29 34 33 28 23 26 26 25 25 26 35 39 28 26 23 22 23 19 17 21 19 18 5 2 9 10 15 21 27 28 23 24 21
4 7 3 2 3 3 3 4 4 12 10 17 25 21 20 18 22 27 30 29 28 27 25 24 26 27 30 46 44 31 30 29 26 25 22 22 21 23 17 8 1 4 9 13 19 22 22 17 17
6 7 4 5 5 6 6 8 8 14 21 21 22 21 19 17 18 20 22 22 20 20 21 22 24 29 36 41 46 42 33 31 32 27 28 24 23 21 16 6 3 3 7 7 5 10 9 14 18
1 7 11 11 17 12 7 10 6 13 31 27 24 24 23 21 21 22 21 19 17 16 17 18 20 25 33 40 39 40 43 34 33 27 25 28 26 22 13 7 5 14 8 9 13 7 4 11 15
4 8 12 22 24 10 16 15 20 27 34 30 25 26 26 25 25 24 24 21 19 19 20 20 22 24 28 34 38 38 36 33 28 27 27 27 22 22 18 18 17 19 15 14 4 3 6 11 15
2 1 3 7 27 10 19 17 10 35 43 33 29 30 29 28 28 26 26 23 22 22 23 25 25 27 31 35 39 38 37 34 31 23 23 22 22 21 21 17 14 12 9 8 3 4 9 16 15
5 7 12 13 22 11 10 14 4 33 33 32 36 37 36 34 34 32 29 24 24 24 24 25 24 29 33 36 37 40 36 35 30 26 25 21 20 19 14 11 7 7 10 8 4 7 10 13 11
12 9 10 11 11 8 13 21 10 32 34 41 44 47 46 44 41 37 29 26 25 22 21 19 20 31 38 43 44 46 41 36 31 28 27 25 24 18 13 13 16 14 10 3 4 11 16 20 19
8 8 10 10 6 9 18 19 23 48 44 44 52 61 59 52 45 38 32 28 26 24 20 21 30 38 42 54 58 50 48 43 37 32 25 23 24 20 21 14 15 12 10 17 19 17 17 21 20
16 16 21 12 11 12 16 28 19 24 41 65 75 74 71 59 52 44 35 30 27 24 25 29 35 42 53 53 51 49 48 45 41 37 30 30 25 25 22 21 25 25 22 21 18 17 20 24 25
13 22 13 16 4 7 10 19 18 19 54 58 71 74 78 76 60 49 42 37 34 33 33 36 42 49 50 50 52 52 52 47 41 38 37 33 31 33 33 31 27 24 18 17 19 20 21 27 27
24 12 11 11 5 13 8 24 14 12 20 23 60 73 77 74 60 52 47 46 43 42 42 45 47 53 54 55 51 51 47 47 47 43 45 47 41 38 33 28 23 19 18 17 19 22 23 21 25
10 2 9 9 9 6 4 11 4 9 17 22 49 65 77 77 69 58 52 49 49 49 51 53 54 56 55 52 48 48 50 49 52 53 53 49 43 35 30 23 19 17 17 20 21 23 26 29 29
13 10 13 9 6 15 16 15 54 25 35 33 21 60 70 74 66 55 52 53 55 55 56 57 59 57 54 52 50 46 49 56 61 58 52 47 39 32 26 20 16 16 17 19 21 25 25 29 29
9 14 3 6 1 16 14 20 44 14 11 15 28 60 73 73 70 66 65 67 66 65 63 61 60 58 54 50 47 50 57 60 58 54 47 42 36 29 24 17 13 13 14 16 20 23 27 27 29
16 20 12 14 9 9 2 17 13 13 22 23 32 59 76 77 76 72 70 71 74 71 69 68 63 59 55 53 56 60 60 58 54 47 41 36 31 26 21 14 11 11 14 18 21 23 25 27 30
11 19 14 1 5 3 11 15 17 14 5 7 36 59 76 82 81 74 70 71 75 77 75 70 66 62 62 65 68 68 63 58 52 46 40 34 29 23 18 12 9 12 15 17 18 18 20 22 26
14 13 7 5 8 13 11 14 23 13 19 16 23 45 60 77 81 76 74 74 75 77 76 73 69 68 68 69 68 65 60 52 47 44 40 34 27 20 14 9 8 9 10 10 11 15 18 22 26
6 10 9 12 9 9 6 13 12 29 20 32 28 53 70 78 84 80 76 74 76 75 76 75 74 74 74 71 68 63 58 53 48 43 38 31 24 18 12 7 5 4 5 9 14 17 20 24 26
8 14 21 10 13 11 4 27 1 11 17 36 43 56 67 76 79 80 81 84 84 84 82 81 80 80 76 73 69 65 60 57 53 46 38 31 24 18 11 5 3 4 7 11 14 17 22 25 30
Wind_Direction_500mb
107 130 117 66 54 64 98 8 97 74 42 67 82 93 100 68 71 146 148 213 159 166 165 162 154 153 150 147 144 141 137 124 123 110 86 69 50 45 44 36 34 38 42 48 50 54 67 82 94
87 93 74 43 82 71 288 109 89 98 128 117 108 97 64 62 85 123 154 141 158 162 166 164 157 155 156 156 151 148 140 133 136 127 109 71 33 39 36 29 27 31 43 53 50 52 57 68 91
76 34 42 98 94 141 133 141 139 116 118 124 113 87 71 9 70 116 109 145 158 155 161 169 159 155 161 164 160 152 149 143 146 136 123 75 46 42 38 32 34 40 42 41 43 54 64 71 79
43 23 315 76 125 354 119 156 131 128 102 81 105 75 83 36 76 121 113 146 166 156 143 162 167 162 159 157 164 161 152 147 146 145 120 55 50 44 38 33 33 39 44 43 43 49 59 71 90
38 12 47 116 106 144 91 94 118 149 140 94 119 116 91 98 99 109 126 152 160 158 165 175 185 181 173 167 177 174 167 163 170 166 142 55 46 36 32 32 37 40 43 42 42 49 58 70 86
17 40 51 5 118 112 92 117 42 122 129 93 104 107 123 143 144 120 134 137 162 166 176 185 193 183 186 183 185 184 185 183 181 182 180 85 38 37 29 29 33 38 41 44 45 46 52 65 82
88 79 200 89 152 128 158 156 45 150 117 86 116 82 140 165 143 139 157 159 164 174 166 172 180 185 194 194 191 191 185 190 195 201 209 205 178 32 29 28 27 31 40 45 47 48 50 58 69
52 94 322 307 186 130 165 129 100 89 99 112 124 146 169 154 148 161 172 182 181 185 187 164 183 196 191 198 208 208 205 209 209 212 215 221 265 52 15 36 29 29 37 40 43 45 43 39 40
32 61 357 307 111 162 159 113 120 106 135 95 98 144 146 150 161 171 184 186 190 186 189 194 182 193 204 200 204 203 209 214 221 219 221 236 169 196 351 38 43 24 38 36 33 36 41 42 38
72 93 256 99 349 154 160 130 164 147 143 100 114 128 149 157 165 183 191 200 198 200 205 211 204 202 196 194 193 211 217 224 233 238 229 218 196 197 179 91 71 40 28 27 25 38 36 33 36
49 160 323 22 54 77 147 116 148 157 173 186 197 165 173 172 184 191 196 206 216 223 217 213 212 203 200 191 189 200 214 213 216 218 219 206 208 191 190 179 58 53 27 11 15 19 36 35 33
57 262 92 338 357 56 91 104 175 217 189 170 174 177 185 187 195 204 210 217 223 224 221 220 220 213 198 196 196 204 205 210 207 201 197 197 209 195 187 190 216 104 13 8 10 5 10 19 28
141 312 178 215 231 224 257 224 209 217 198 190 189 194 201 201 190 190 204 210 216 219 220 221 220 214 207 206 202 200 203 207 209 204 195 197 202 203 179 171 303 269 323 293 301 325 352 355 358
190 319 287 233 219 222 212 259 232 223 201 207 209 207 208 203 196 194 205 210 214 221 222 223 220 210 208 205 199 198 204 201 194 195 189 191 190 189 202 207 234 280 261 245 287 260 282 324 331
328 326 312 240 209 215 204 291 232 228 200 210 210 214 212 206 208 213 220 223 230 238 244 241 233 222 209 201 195 199 203 210 214 208 205 202 210 231 236 248 254 266 249 261 209 147 299 307 322
311 62 315 271 166 198 148 262 287 216 198 203 207 208 213 212 219 223 232 240 247 251 253 253 238 219 199 195 190 197 200 198 195 195 198 209 218 213 209 224 198 189 179 195 183 239 297 317 320
324 243 221 305 173 136 164 260 213 183 195 206 211 213 214 216 223 229 235 240 246 251 253 247 230 198 184 182 187 190 197 195 191 191 191 191 193 198 202 212 209 167 166 180 218 323 334 43 54
202 225 261 233 219 156 194 251 213 203 212 222 215 210 214 221 225 230 234 239 241 242 241 225 190 171 172 173 172 181 182 178 182 187 190 200 184 175 176 179 159 169 182 169 92 84 69 65 64
201 212 247 256 250 160 219 236 230 221 221 225 221 215 212 217 221 226 232 227 224 220 215 180 167 168 173 186 188 195 181 174 176 171 173 165 161 159 152 162 154 140 134 117 105 87 78 73 72
235 248 262 300 199 175 252 245 243 203 220 221 220 219 211 206 210 219 225 215 207 205 187 177 171 175 182 183 186 181 171 165 166 161 165 161 160 158 155 151 137 127 119 108 91 66 48 46 45
220 223 240 230 223 270 295 265 241 235 225 228 229 227 215 209 207 211 214 206 197 192 182 180 179 174 175 177 174 175 166 160 160 156 159 153 151 143 141 137 131 124 113 92 68 52 38 35 29
243 214 216 242 274 256 157 288 228 225 230 224 226 215 208 202 210 213 210 202 193 186 187 182 180 180 180 181 177 175 176 170 160 162 154 146 146 143 139 133 125 111 89 75 55 45 37 35 37
235 160 202 220 229 322 211 302 265 231 244 242 227 203 203 200 206 205 208 201 187 190 187 185 183 182 177 179 182 178 172 165 160 157 155 151 147 143 135 123 110 95 75 59 48 38 28 24 22
152 71 36 39 66 264 184 195 276 235 239 247 194 194 189 190 199 204 204 194 187 191 189 189 185 181 182 182 179 184 185 172 164 160 159 152 147 141 132 123 106 84 65 52 40 33 28 24 24
126 111 308 312 309 249 203 207 251 288 229 227 190 192 192 192 195 195 196 192 190 193 191 190 189 188 186 188 188 185 179 171 168 165 162 156 151 146 136 124 102 83 63 49 41 29 24 22 16
193 166 164 211 211 266 343 240 252 232 283 237 216 199 192 192 195 198 201 196 194 194 194 195 193 195 193 188 180 176 176 173 170 167 164 161 157 149 137 127 108 73 54 39 30 20 14 12 5
197 211 177 90 76 353 223 280 292 230 237 114 161 175 183 191 195 199 201 200 196 195 198 199 199 197 190 183 179 179 180 179 174 169 166 163 158 152 142 130 89 55 36 22 14 9 2 2 356
155 168 145 104 218 234 265 252 233 246 224 192 181 179 182 190 198 200 202 200 198 198 197 196 195 191 186 185 184 183 181 179 178 176 173 168 162 152 140 115 67 42 23 6 0 357 359 354 352
140 203 197 162 169 203 286 257 223 234 197 199 193 188 186 189 198 200 201 200 198 196 194 191 190 189 187 188 187 185 183 182 181 178 174 169 164 153 144 115 63 13 358 353 350 350 353 349 348
245 197 188 179 217 227 141 260 59 318 199 190 194 189 193 199 202 202 201 199 197 196 194 193 191 193 192 190 190 190 190 188 186 182 178 174 171 162 153 155 214 301 337 346 347 345 347 346 345
Wind_Speed_850mb
6 8 8 7 8 10 4 5 8 7 8 10 24 42 24 19 8 11 15 12 14 19 27 24 24 24 23 23 22 20 18 17 12 12 11 15 19 19 18 20 20 19 20 19 18 17 16 18 21
11 6 7 3 9 7 7 8 16 9 13 19 37 36 32 10 26 24 13 28 16 20 20 24 25 24 23 21 20 19 15 16 13 11 12 12 16 17 21 23 21 18 16 16 16 16 15 14 16
9 7 5 8 7 6 7 6 14 14 8 4 12 24 11 8 15 11 11 35 25 21 19 24 24 22 20 24 21 19 17 14 12 13 14 10 17 20 23 23 23 21 17 17 16 14 13 12 13
10 4 1 9 10 14 12 11 27 18 9 10 25 21 19 15 5 16 26 34 27 22 16 17 21 21 19 21 20 16 15 11 14 16 11 10 15 18 21 23 23 19 18 18 17 16 15 14 15
9 2 7 7 6 11 7 11 9 10 13 13 21 10 14 21 24 25 24 22 26 26 21 20 22 22 19 17 19 17 15 10 12 12 8 7 11 15 20 22 24 21 18 18 17 17 17 16 17
6 4 8 4 5 8 8 7 2 10 19 22 25 15 10 18 26 22 26 17 30 24 21 18 19 24 23 20 19 17 14 12 12 11 5 1 5 10 15 19 21 21 19 19 19 18 16 15 15
6 7 6 3 9 7 10 13 6 9 17 10 13 10 16 22 28 24 29 29 33 31 24 18 20 18 19 18 18 17 16 13 12 11 8 5 1 3 14 17 18 17 19 20 19 18 16 14 11
5 8 4 3 7 4 13 15 9 16 4 10 15 12 13 27 31 25 23 27 25 35 32 23 24 27 26 22 18 16 16 14 13 13 11 9 2 7 16 18 22 16 16 20 22 20 18 16 13
4 8 3 6 5 9 14 6 7 12 17 9 11 17 24 27 29 26 23 23 25 29 33 29 29 29 29 22 21 18 17 16 15 15 14 13 9 2 5 10 22 21 18 21 22 21 20 18 16
9 7 3 0 6 7 16 9 15 10 17 10 19 21 20 25 29 26 25 28 27 29 31 28 27 34 41 28 20 19 22 17 18 19 18 16 13 10 5 8 16 18 19 23 22 19 23 21 18
5 6 3 7 10 14 10 8 8 9 6 13 22 26 19 21 29 34 33 28 23 26 26 25 25 26 35 39 28 26 23 22 23 19 17 21 19 18 5 2 9 10 15 21 27 28 23 24 21
4 7 3 2 3 3 3 4 4 12 10 17 25 21 20 18 22 27 30 29 28 27 25 24 26 27 30 46 44 31 30 29 26 25 22 22 21 23 17 8 1 4 9 13 19 22 22 17 17
6 7 4 5 5 6 6 8 8 14 21 21 22 21 19 17 18 20 22 22 20 20 21 22 24 29 36 41 46 42 33 31 32 27 28 24 23 21 16 6 3 3 7 7 5 10 9 14 18
1 7 11 11 17 12 7 10 6 13 31 27 24 24 23 21 21 22 21 19 17 16 17 18 20 25 33 40 39 40 43 34 33 27 25 28 26 22 13 7 5 14 8 9 13 7 4 11 15
4 8 12 22 24 10 16 15 20 27 34 30 25 26 26 25 25 24 24 21 19 19 20 20 22 24 28 34 38 38 36 33 28 27 27 27 22 22 18 18 17 19 15 14 4 3 6 11 15
2 1 3 7 27 10 19 17 10 35 43 33 29 30 29 28 28 26 26 23 22 22 23 25 25 27 31 35 39 38 37 34 31 23 23 22 22 21 21 17 14 12 9 8 3 4 9 16 15
5 7 12 13 22 11 10 14 4 33 33 32 36 37 36 34 34 32 29 24 24 24 24 25 24 29 33 36 37 40 36 35 30 26 25 21 20 19 14 11 7 7 10 8 4 7 10 13 11
12 9 10 11 11 8 13 21 10 32 34 41 44 47 46 44 41 37 29 26 25 22 21 19 20 31 38 43 44 46 41 36 31 28 27 25 24 18 13 13 16 14 10 3 4 11 16 20 19
8 8 10 10 6 9 18 19 23 48 44 44 52 61 59 52 45 38 32 28 26 24 20 21 30 38 42 54 58 50 48 43 37 32 25 23 24 20 21 14 15 12 10 17 19 17 17 21 20
16 16 21 12 11 12 16 28 19 24 41 65 75 74 71 59 52 44 35 30 27 24 25 29 35 42 53 53 51 49 48 45 41 37 30 30 25 25 22 21 25 25 22 21 18 17 20 24 25
13 22 13 16 4 7 10 19 18 19 54 58 71 74 78 76 60 49 42 37 34 33 33 36 42 49 50 50 52 52 52 47 41 38 37 33 31 33 33 31 27 24 18 17 19 20 21 27 27
24 12 11 11 5 13 8 24 14 12 20 23 60 73 77 74 60 52 47 46 43 42 42 45 47 53 54 55 51 51 47 47 47 43 45 47 41 38 33 28 23 19 18 17 19 22 23 21 25
10 2 9 9 9 6 4 11 4 9 17 22 49 65 77 77 69 58 52 49 49 49 51 53 54 56 55 52 48 48 50 49 52 53 53 49 43 35 30 23 19 17 17 20 21 23 26 29 29
13 10 13 9 6 15 16 15 54 25 35 33 21 60 70 74 66 55 52 53 55 55 56 57 59 57 54 52 50 46 49 56 61 58 52 47 39 32 26 20 16 16 17 19 21 25 25 29 29
9 14 3 6 1 16 14 20 44 14 11 15 28 60 73 73 70 66 65 67 66 65 63 61 60 58 54 50 47 50 57 60 58 54 47 42 36 29 24 17 13 13 14 16 20 23 27 27 29
16 20 12 14 9 9 2 17 13 13 22 23 32 59 76 77 76 72 70 71 74 71 69 68 63 59 55 53 56 60 60 58 54 47 41 36 31 26 21 14 11 11 14 18 21 23 25 27 30
11 19 14 1 5 3 11 15 17 14 5 7 36 59 76 82 81 74 70 71 75 77 75 70 66 62 62 65 68 68 63 58 52 46 40 34 29 23 18 12 9 12 15 17 18 18 20 22 26
14 13 7 5 8 13 11 14 23 13 19 16 23 45 60 77 81 76 74 74 75 77 76 73 69 68 68 69 68 65 60 52 47 44 40 34 27 20 14 9 8 9 10 10 11 15 18 22 26
6 10 9 12 9 9 6 13 12 29 20 32 28 53 70 78 84 80 76 74 76 75 76 75 74 74 74 71 68 63 58 53 48 43 38 31 24 18 12 7 5 4 5 9 14 17 20 24 26
8 14 21 10 13 11 4 27 1 11 17 36 43 56 67 76 79 80 81 84 84 84 82 81 80 80 76 73 69 65 60 57 53 46 38 31 24 18 11 5 3 4 7 11 14 17 22 25 30
Wind_Direction_850mb
107 130 117 66 54 64 98 8 97 74 42 67 82 93 100 68 71 146 148 213 159 166 165 162 154 153 150 147 144 141 137 124 123 110 86 69 50 45 44 36 34 38 42 48 50 54 67 82 94
87 93 74 43 82 71 288 109 89 98 128 117 108 97 64 62 85 123 154 141 158 162 166 164 157 155 156 156 151 148 140 133 136 127 109 71 33 39 36 29 27 31 43 53 50 52 57 68 91
76 34 42 98 94 141 133 141 139 116 118 124 113 87 71 9 70 116 109 145 158 155 161 169 159 155 161 164 160 152 149 143 146 136 123 75 46 42 38 32 34 40 42 41 43 54 64 71 79
43 23 315 76 125 354 119 156 131 128 102 81 105 75 83 36 76 121 113 146 166 156 143 162 167 162 159 157 164 161 152 147 146 145 120 55 50 44 38 33 33 39 44 43 43 49 59 71 90
38 12 47 116 106 144 91 94 118 149 140 94 119 116 91 98 99 109 126 152 160 158 165 175 185 181 173 167 177 174 167 163 170 166 142 55 46 36 32 32 37 40 43 42 42 49 58 70 86
17 40 51 5 118 112 92 117 42 122 129 93 104 107 123 143 144 120 134 137 162 166 176 185 193 183 186 183 185 184 185 183 181 182 180 85 38 37 29 29 33 38 41 44 45 46 52 65 82
88 79 200 89 152 128 158 156 45 150 117 86 116 82 140 165 143 139 157 159 164 174 166 172 180 185 194 194 191 191 185 190 195 201 209 205 178 32 29 28 27 31 40 45 47 48 50 58 69
52 94 322 307 186 130 165 129 100 89 99 112 124 146 169 154 148 161 172 182 181 185 187 164 183 196 191 198 208 208 205 209 209 212 215 221 265 52 15 36 29 29 37 40 43 45 43 39 40
32 61 357 307 111 162 159 113 120 106 135 95 98 144 146 150 161 171 184 186 190 186 189 194 182 193 204 200 204 203 209 214 221 219 221 236 169 196 351 38 43 24 38 36 33 36 41 42 38
72 93 256 99 349 154 160 130 164 147 143 100 114 128 149 157 165 183 191 200 198 200 205 211 204 202 196 194 193 211 217 224 233 238 229 218 196 197 179 91 71 40 28 27 25 38 36 33 36
49 160 323 22 54 77 147 116 148 157 173 186 197 165 173 172 184 191 196 206 216 223 217 213 212 203 200 191 189 200 214 213 216 218 219 206 208 191 190 179 58 53 27 11 15 19 36 35 33
57 262 92 338 357 56 91 104 175 217 189 170 174 177 185 187 195 204 210 217 223 224 221 220 220 213 198 196 196 204 205 210 207 201 197 197 209 195 187 190 216 104 13 8 10 5 10 19 28
141 312 178 215 231 224 257 224 209 217 198 190 189 194 201 201 190 190 204 210 216 219 220 221 220 214 207 206 202 200 203 207 209 204 195 197 202 203 179 171 303 269 323 293 301 325 352 355 358
190 319 287 233 219 222 212 259 232 223 201 207 209 207 208 203 196 194 205 210 214 221 222 223 220 210 208 205 199 198 204 201 194 195 189 191 190 189 202 207 234 280 261 245 287 260 282 324 331
328 326 312 240 209 215 204 291 232 228 200 210 210 214 212 206 208 213 220 223 230 238 244 241 233 222 209 201 195 199 203 210 214 208 205 202 210 231 236 248 254 266 249 261 209 147 299 307 322
311 62 315 271 166 198 148 262 287 216 198 203 207 208 213 212 219 223 232 240 247 251 253 253 238 219 199 195 190 197 200 198 195 195 198 209 218 213 209 224 198 189 179 195 183 239 297 317 320
324 243 221 305 173 136 164 260 213 183 195 206 211 213 214 216 223 229 235 240 246 251 253 247 230 198 184 182 187 190 197 195 191 191 191 191 193 198 202 212 209 167 166 180 218 323 334 43 54
202 225 261 233 219 156 194 251 213 203 212 222 215 210 214 221 225 230 234 239 241 242 241 225 190 171 172 173 172 181 182 178 182 187 190 200 184 175 176 179 159 169 182 169 92 84 69 65 64
201 212 247 256 250 160 219 236 230 221 221 225 221 215 212 217 221 226 232 227 224 220 215 180 167 168 173 186 188 195 181 174 176 171 173 165 161 159 152 162 154 140 134 117 105 87 78 73 72
235 248 262 300 199 175 252 245 243 203 220 221 220 219 211 206 210 219 225 215 207 205 187 177 171 175 182 183 186 181 171 165 166 161 165 161 160 158 155 151 137 127 119 108 91 66 48 46 45
220 223 240 230 223 270 295 265 241 235 225 228 229 227 215 209 207 211 214 206 197 192 182 180 179 174 175 177 174 175 166 160 160 156 159 153 151 143 141 137 131 124 113 92 68 52 38 35 29
243 214 216 242 274 256 157 288 228 225 230 224 226 215 208 202 210 213 210 202 193 186 187 182 180 180 180 181 177 175 176 170 160 162 154 146 146 143 139 133 125 111 89 75 55 45 37 35 37
235 160 202 220 229 322 211 302 265 231 244 242 227 203 203 200 206 205 208 201 187 190 187 185 183 182 177 179 182 178 172 165 160 157 155 151 147 143 135 123 110 95 75 59 48 38 28 24 22
152 71 36 39 66 264 184 195 276 235 239 247 194 194 189 190 199 204 204 194 187 191 189 189 185 181 182 182 179 184 185 172 164 160 159 152 147 141 132 123 106 84 65 52 40 33 28 24 24
126 111 308 312 309 249 203 207 251 288 229 227 190 192 192 192 195 195 196 192 190 193 191 190 189 188 186 188 188 185 179 171 168 165 162 156 151 146 136 124 102 83 63 49 41 29 24 22 16
193 166 164 211 211 266 343 240 252 232 283 237 216 199 192 192 195 198 201 196 194 194 194 195 193 195 193 188 180 176 176 173 170 167 164 161 157 149 137 127 108 73 54 39 30 20 14 12 5
197 211 177 90 76 353 223 280 292 230 237 114 161 175 183 191 195 199 201 200 196 195 198 199 199 197 190 183 179 179 180 179 174 169 166 163 158 152 142 130 89 55 36 22 14 9 2 2 356
155 168 145 104 218 234 265 252 233 246 224 192 181 179 182 190 198 200 202 200 198 198 197 196 195 191 186 185 184 183 181 179 178 176 173 168 162 152 140 115 67 42 23 6 0 357 359 354 352
140 203 197 162 169 203 286 257 223 234 197 199 193 188 186 189 198 200 201 200 198 196 194 191 190 189 187 188 187 185 183 182 181 178 174 169 164 153 144 115 63 13 358 353 350 350 353 349 348
245 197 188 179 217 227 141 260 59 318 199 190 194 189 193 199 202 202 201 199 197 196 194 193 191 193 192 190 190 190 190 188 186 182 178 174 171 162 153 155 214 301 337 346 347 345 347 346 345